Export;EXP-2023-01 (20230706 17:33);;;StationsCode;NL01484;NL01485;NL01486;NL01494;NL01495;NL01496;NL10133;NL10318;NL10444;NL10644;NL10722;NL10934;NL49016;NL49551;NL49553;NL49704
Periode;20160101 00:00 - 20170101 00:00;;;BeheerderMeetStation;DCMR;DCMR;DCMR;DCMR;DCMR;DCMR;RIVM;RIVM;RIVM;RIVM;RIVM;RIVM;GGD A'dam;GGD A'dam;GGD A'dam;GGD A'dam
Bron;https://data.rivm.nl/data/luchtmeetnet;;;StationsNaam;Botlek-Oude Maasweg;Hoogvliet-Leemkuil;Pernis-Soetemanweg;Schiedam-Alphons Arienstraat;Maassluis-Kwartellaan;Hoek v. Holland-Berghaven;Wijnandsrade-Opfergeltstraat;Philippine-Stelleweg;De Zilk-Vogelaarsdreef;Cabauw-Wielsekade;Eibergen-Lintveldseweg;Kollumerwaard-Hooge Zuidwal;Amsterdam-Westerpark;IJmuiden-Kanaaldijk;Wijk aan Zee-Burgemeester Rothestraat;Amsterdam-Hoogtij
Beschrijving data;https://data.rivm.nl/data/luchtmeetnet/readme.pdf;;;Latitude,Longitude;(51.888889,4.3125);(51.867411,4.355242);(51.887869,4.388808);(51.921389,4.401389);(51.932039,4.228025);(51.977803,4.121944);(50.902281,5.881748);(51.294498,3.749484);(52.296556,4.510817);(51.974489,4.923301);(52.091801,6.605367);(53.330425,6.276815);(52.393972,4.870157);(52.463039,4.601842);(52.493992,4.601986);(52.428017,4.773478)
Accreditatienummer;https://www.rva.nl/alle-geaccrediteerden/;;;StationsGebied;stad;stad;voorstad;stad;stad;voorstad;regionaal;regionaal;regionaal;regionaal;regionaal;regionaal;stad;stad;stad;regionaal
;;;;StationsType;industrie;achtergrond;industrie;achtergrond;achtergrond;industrie;achtergrond;achtergrond;achtergrond;achtergrond;achtergrond;achtergrond;achtergrond;industrie;industrie;industrie
;;;;Meetprincipe;Ultraviolet fluorescentie (UV-F);Ultraviolet fluorescentie (UV-F);Ultraviolet fluorescentie (UV-F);Ultraviolet fluorescentie (UV-F);Ultraviolet fluorescentie (UV-F);Ultraviolet fluorescentie (UV-F);Ultraviolet fluorescentie (UV-F);Ultraviolet fluorescentie (UV-F);Ultraviolet fluorescentie (UV-F);Ultraviolet fluorescentie (UV-F);Ultraviolet fluorescentie (UV-F);Ultraviolet fluorescentie (UV-F);Ultraviolet fluorescentie (UV-F);Ultraviolet fluorescentie (UV-F);Ultraviolet fluorescentie (UV-F);Ultraviolet fluorescentie (UV-F)
;;;;Meetopstelling;Teledyne API 100E UV Fluorescent SO2 Analyser;Teledyne API 100E UV Fluorescent SO2 Analyser;Teledyne API 100E UV Fluorescent SO2 Analyser;Teledyne API 100E UV Fluorescent SO2 Analyser;Teledyne API 100E UV Fluorescent SO2 Analyser;Teledyne API 100E UV Fluorescent SO2 Analyser;Thermo model 43w SO2 analyser;Thermo model 43w SO2 analyser;Thermo model 43w SO2 analyser;Thermo model 43w SO2 analyser;Thermo model 43w SO2 analyser;Thermo model 43w SO2 analyser;Thermo model 43i SO2 analyser;Thermo model 43i SO2 analyser;Thermo model 43i SO2 analyser;Thermo model 43i SO2 analyser
;;;;Accreditatienummer;L520;L520;L520;L520;L520;L520;L224;L224;L224;L224;L224;L224;L426;L426;L426;L426
Component;Bep.periode;Eenheid; Begindatumtijd;Einddatumtijd;NL01484;NL01485;NL01486;NL01494;NL01495;NL01496;NL10133;NL10318;NL10444;NL10644;NL10722;NL10934;NL49016;NL49551;NL49553;NL49704
SO2;uur;�g/m�;20160101 00:00;20160101 01:00;31.9;9.1;31.5;10.7;4;5.2;0.75;1.56;6.26;;3.09;1.39;12.3;11.2;20;4.6
SO2;uur;�g/m�;20160101 01:00;20160101 02:00;26.6;6.4;9.7;8.3;4.3;6;-0.16;1.5;1.92;;2.78;1.64;9.3;2;1.3;5.9
SO2;uur;�g/m�;20160101 02:00;20160101 03:00;30.4;4.7;5.3;6.7;3.5;6.5;-0.29;1.15;1.43;;2.74;2.13;6;0.7;0.7;3.2
SO2;uur;�g/m�;20160101 03:00;20160101 04:00;25.6;3.8;3.8;5.7;3.1;6.5;-0.08;1.34;1.47;;2.31;2.37;3.9;1.3;0.3;3.1
SO2;uur;�g/m�;20160101 04:00;20160101 05:00;5.1;3.2;3.2;7.2;3.7;6.6;-0.07;1.07;0.37;;1.9;2.21;2.6;1.1;0.3;2.5
SO2;uur;�g/m�;20160101 05:00;20160101 06:00;3.6;2.9;3;8.2;3.3;5;-0.34;1.11;-0.16;;1.98;2.11;1.8;1.1;-0.8;2
SO2;uur;�g/m�;20160101 06:00;20160101 07:00;6;2.6;2.7;6;2.9;4.9;-0.51;1.28;0.24;;1.69;2.09;1.6;0.9;-0.5;1.6
SO2;uur;�g/m�;20160101 07:00;20160101 08:00;5.3;2.3;2.4;4.8;2.9;4.8;-0.48;1.23;-0.35;;1.3;2.05;1.6;1.3;-0.5;1.4
SO2;uur;�g/m�;20160101 08:00;20160101 09:00;4.1;2.3;2.4;5.2;2.7;3.8;-0.4;1.02;-0.43;;1;2.17;1.1;2.4;-0.9;1.9
SO2;uur;�g/m�;20160101 09:00;20160101 10:00;3.2;2.2;2.5;5.5;3.5;4.7;-0.97;0.82;-0.52;;1.5;1.37;1.3;1.6;-0.7;1.8
SO2;uur;�g/m�;20160101 10:00;20160101 11:00;3;;2.8;4.6;4.3;3.1;-0.67;1.09;-0.22;;1.88;1.65;1.4;1.2;-0.4;2
SO2;uur;�g/m�;20160101 11:00;20160101 12:00;10;;3.4;5;5.2;4.4;-0.19;1.76;0.1;;1.2;1.63;1.3;1.2;-0.2;3.1
SO2;uur;�g/m�;20160101 12:00;20160101 13:00;5.5;;4.5;5.7;5.5;5.3;-0.29;3.08;-0.05;;1.58;2.26;1.7;1.6;-0.2;2.3
SO2;uur;�g/m�;20160101 13:00;20160101 14:00;1.9;;4;6.1;7.5;7.6;0.04;2.5;-0.22;;1.36;1.69;2;1.5;0.2;1.6
SO2;uur;�g/m�;20160101 14:00;20160101 15:00;4.6;;3.2;4.7;8.5;8.9;-0.25;1.69;0.02;;1.38;1.8;2.6;1.5;;1.5
SO2;uur;�g/m�;20160101 15:00;20160101 16:00;15.4;;2.8;4.1;6.8;7.5;0.23;1.64;-0.02;;0.85;1.66;1.3;1.7;-0.4;1.3
SO2;uur;�g/m�;20160101 16:00;20160101 17:00;11.6;;2.9;4;5.7;6.7;0.26;1.22;-0.42;;1.26;1.43;0.9;1.4;0;1.2
SO2;uur;�g/m�;20160101 17:00;20160101 18:00;11;;2.9;3.7;5.4;6.4;-0.29;0.96;-0.47;;1.03;1.19;1.4;1.4;0.3;1.1
SO2;uur;�g/m�;20160101 18:00;20160101 19:00;7.2;;3.1;2.2;4.5;4.3;-0.27;1.28;-0.52;;0.99;1.43;0.9;1;0.1;1
SO2;uur;�g/m�;20160101 19:00;20160101 20:00;9.6;;3.1;2.9;4.2;3.8;0.54;1.35;-0.23;;0.94;1.69;0.7;1.2;-0.6;1.2
SO2;uur;�g/m�;20160101 20:00;20160101 21:00;16.6;;3.4;3.3;4.1;3.8;0.43;1.25;-0.21;;1.68;1.34;1.4;1.5;0.1;1.5
SO2;uur;�g/m�;20160101 21:00;20160101 22:00;19.5;;3.7;3.4;4.6;4.4;0.22;1.64;0.02;;1.09;1.66;1.6;1.8;0.2;1.9
SO2;uur;�g/m�;20160101 22:00;20160101 23:00;14.2;;3.8;3.3;5.7;4.7;0.03;1.55;1.02;;0.91;2.05;2.1;2.6;1;2.2
SO2;uur;�g/m�;20160101 23:00;20160102 00:00;12.8;;4.2;3.5;5.2;4.7;0.01;1.34;0.99;;1.55;1.8;1.9;2.4;1.3;2.6
SO2;uur;�g/m�;20160102 00:00;20160102 01:00;17.5;;4.4;3.5;5.3;5;1.37;-0.15;1.55;;1.6;-0.84;1.7;2.6;1.2;2.3
SO2;uur;�g/m�;20160102 01:00;20160102 02:00;17;;4.5;3.5;5.7;5.2;2.32;-0.01;1.75;;1.05;-0.7;1.5;1.9;0.6;2.3
SO2;uur;�g/m�;20160102 02:00;20160102 03:00;17.8;;4.6;3.8;5.8;5.2;3.11;-0.45;1.48;;1.2;-1.33;1.5;1.2;0.6;2.4
SO2;uur;�g/m�;20160102 03:00;20160102 04:00;26.2;;4.4;3.8;6.7;5.2;1.28;-0.2;1.96;;1.45;-0.88;1.6;2.2;0.8;2.4
SO2;uur;�g/m�;20160102 04:00;20160102 05:00;36.6;;4.3;3.3;6.7;6.4;1.24;-0.2;1.31;;1.49;-0.98;1.5;2.3;0.9;2.2
SO2;uur;�g/m�;20160102 05:00;20160102 06:00;33.5;-1.3;4.3;3.2;5.7;6.4;1;-0.28;1.37;;1.56;-0.62;1.5;1.8;1.2;2.3
SO2;uur;�g/m�;20160102 06:00;20160102 07:00;24.6;-0.9;4.8;3.8;6.2;6.1;1.46;-0.52;1.19;;1.1;-0.92;1.5;2.6;0.8;2.2
SO2;uur;�g/m�;20160102 07:00;20160102 08:00;18;-1.2;4.7;3.2;6.7;6.2;1.24;-0.26;1.37;;1.57;-0.38;1.5;1.9;0.7;2.1
SO2;uur;�g/m�;20160102 08:00;20160102 09:00;22.6;-1.4;4.8;3.5;6.3;8.8;0.67;-0.17;1.2;;1.54;-0.3;1.2;1.6;0.5;1.9
SO2;uur;�g/m�;20160102 09:00;20160102 10:00;16;-0.9;4.7;3.5;5.8;8.2;0.65;1.4;1.1;;1.87;-0.66;0.9;1.6;-0.4;0.7
SO2;uur;�g/m�;20160102 10:00;20160102 11:00;11.5;-1;4.9;3.8;6.7;10.3;0.57;0.93;1.46;;2.35;-0.33;0.7;1.7;-0.5;0.6
SO2;uur;�g/m�;20160102 11:00;20160102 12:00;9.8;-0.8;5;4.1;8.3;12.4;-0.3;0.98;1.21;;1.14;-0.16;0.7;1.7;-0.7;0.5
SO2;uur;�g/m�;20160102 12:00;20160102 13:00;11.8;-0.8;5.5;4.3;8.2;11.7;-0.09;2.7;0.98;;0.93;-0.2;0.6;0.7;0;0.5
SO2;uur;�g/m�;20160102 13:00;20160102 14:00;12.1;-0.3;5.5;4.9;9.1;14.6;0.79;1.79;0.93;;1.6;-0.75;0.5;1.2;0.3;0.6
SO2;uur;�g/m�;20160102 14:00;20160102 15:00;18;-0.2;5.2;4.7;9;11.9;1.16;0.63;0.77;;1.69;-0.65;0.5;0.7;-0.3;0.6
SO2;uur;�g/m�;20160102 15:00;20160102 16:00;15.7;-0.2;5.5;4.6;9.4;10.3;0.74;0.14;1.17;;1.38;-0.58;0.6;0.9;-0.3;0.5
SO2;uur;�g/m�;20160102 16:00;20160102 17:00;17.8;0;5.6;4.4;9.6;9.6;0.48;0.42;0.77;;1.38;-0.76;0.4;1.1;-0.5;0.4
SO2;uur;�g/m�;20160102 17:00;20160102 18:00;26.6;0;5.4;4.4;9.9;15;0.75;3.05;0.93;;1.24;-0.49;0.4;2.1;-0.5;0.7
SO2;uur;�g/m�;20160102 18:00;20160102 19:00;20.2;-0.5;5.1;2.4;9.9;14.2;0.81;1.8;0.71;;0.81;-0.93;0.4;;0;0.7
SO2;uur;�g/m�;20160102 19:00;20160102 20:00;18.5;-0.5;4.6;2.4;8.3;12.9;0.94;0.08;0.88;;1.22;-0.81;0.4;0.7;-0.3;0.6
SO2;uur;�g/m�;20160102 20:00;20160102 21:00;23.6;0;5;1.8;9;11;0.93;-0.1;0.96;;1.09;-0.66;0.4;1;0.2;0.8
SO2;uur;�g/m�;20160102 21:00;20160102 22:00;9.2;-0.1;4.7;2;10.3;8.9;0.92;0.19;1.05;;1.21;-0.82;0.5;0.8;0.1;0.8
SO2;uur;�g/m�;20160102 22:00;20160102 23:00;8.6;-0.2;3.5;2.1;10.2;7.7;0.53;-0.11;1.09;;0.83;-0.97;0.7;1.3;0.6;0.9
SO2;uur;�g/m�;20160102 23:00;20160103 00:00;8.1;-0.3;4.1;2;10.2;8.4;0.67;-0.05;1.11;;0.57;-0.62;0.6;0.9;0.2;0.7
SO2;uur;�g/m�;20160103 00:00;20160103 01:00;11.1;-0.2;4.4;3;7.4;7.1;-0.65;1.25;1.04;;1.3;0.89;0.5;0.9;0.3;0.5
SO2;uur;�g/m�;20160103 01:00;20160103 02:00;34.6;0;4.5;3.7;6.7;5.9;-0.78;0.99;0.84;;1.13;0.96;0.4;0.6;-0.2;0.7
SO2;uur;�g/m�;20160103 02:00;20160103 03:00;17;0.1;4.6;2.9;6.3;7.3;-0.63;1.05;0.71;;1.48;0.26;0.3;0.9;0.5;0.5
SO2;uur;�g/m�;20160103 03:00;20160103 04:00;9.2;0.1;4.4;2.1;5.6;6.4;-0.55;0.77;0.62;;1.2;0.82;0.3;0.4;-0.3;0.2
SO2;uur;�g/m�;20160103 04:00;20160103 05:00;8.4;0;4.3;2.2;5;6.5;-0.72;1.12;0.76;;1.65;0.61;0.3;0.6;-0.5;0.6
SO2;uur;�g/m�;20160103 05:00;20160103 06:00;8.3;0;4.4;2.3;4.9;9.6;-0.56;1.04;0.91;;1.17;0.49;0.2;0.5;-0.4;0.6
SO2;uur;�g/m�;20160103 06:00;20160103 07:00;11.5;-0.2;4.3;2.4;5.3;7.6;-0.49;0.62;1.1;;1.22;1.54;0.2;0.5;-0.2;0.7
SO2;uur;�g/m�;20160103 07:00;20160103 08:00;13.7;-0.1;4.2;2.2;5.1;8.1;-0.39;1.05;1.33;;0.79;1.11;0.2;0.6;1.7;0.2
SO2;uur;�g/m�;20160103 08:00;20160103 09:00;9;-0.1;4.4;2;5.3;9.8;-0.55;0.83;1.27;;0.81;1.14;0.2;0.4;12.3;0.7
SO2;uur;�g/m�;20160103 09:00;20160103 10:00;9;-0.1;4.3;2.2;5.3;9.5;-0.67;0.93;1.15;;1.25;1.44;0.2;0.8;16.9;0.8
SO2;uur;�g/m�;20160103 10:00;20160103 11:00;8.9;-0.1;4.4;2.3;5.5;7.6;-0.48;1.33;1.78;;0.23;1.26;0.1;0.4;3.4;1.1
SO2;uur;�g/m�;20160103 11:00;20160103 12:00;8.9;0.5;4.5;2.4;5.7;7.9;-0.6;1.43;1.84;;0.65;0.83;0.3;0.8;3;1
SO2;uur;�g/m�;20160103 12:00;20160103 13:00;10.4;0.8;5.4;3.3;6;8.3;-0.44;0.95;1.28;;0.1;0.67;0.5;0.5;3.4;1.4
SO2;uur;�g/m�;20160103 13:00;20160103 14:00;35.3;1.8;5.4;4.5;7;8.9;-0.39;3.04;2.05;;0.57;0.53;0.5;1.4;6.1;1
SO2;uur;�g/m�;20160103 14:00;20160103 15:00;10.7;1;5.2;13.1;10.3;10.5;-0.32;3.23;1.68;;0.86;0.81;0.5;1.5;2.9;1.1
SO2;uur;�g/m�;20160103 15:00;20160103 16:00;11.1;1.6;5.4;13.9;12.6;11.9;-0.75;1.82;1.28;;1.14;0.59;0.4;1;0.6;0.7
SO2;uur;�g/m�;20160103 16:00;20160103 17:00;11.3;1.7;5.4;9;12.6;11.1;-0.73;1.16;0.79;;2.38;0.54;0.3;0.8;;0.7
SO2;uur;�g/m�;20160103 17:00;20160103 18:00;12.9;2.2;5.3;4.5;9.1;12.1;-0.28;0.95;1.32;;0.9;0.51;0.2;0.8;1.5;0.8
SO2;uur;�g/m�;20160103 18:00;20160103 19:00;18.6;2.6;5.7;4.2;7.5;16.3;-0.73;1.12;0.83;;1.1;0.73;0.4;0.5;1.6;0.6
SO2;uur;�g/m�;20160103 19:00;20160103 20:00;18.3;3.2;5.7;3.7;7.8;14.4;-0.28;1.27;0.4;;0.42;0.54;0.2;0.3;0.2;0.5
SO2;uur;�g/m�;20160103 20:00;20160103 21:00;14.1;3.1;6.2;3.8;10;12.8;-0.7;0.98;0.58;;0.65;0.71;0.1;0.4;-0.2;0.3
SO2;uur;�g/m�;20160103 21:00;20160103 22:00;14.4;3.4;6.6;3.7;11.6;12.7;-0.86;1.22;0.82;;0.79;0.36;0.1;0.3;-0.8;0.4
SO2;uur;�g/m�;20160103 22:00;20160103 23:00;14.8;3.8;6.5;3.7;13.5;13.9;-0.77;1.21;0.85;;0.92;0.94;0.1;0.4;0.8;0.3
SO2;uur;�g/m�;20160103 23:00;20160104 00:00;18.3;3.8;6.3;6;9.3;10.7;-1.13;1.3;0.91;;0.98;0.79;0.1;0.5;0.3;0.4
SO2;uur;�g/m�;20160104 00:00;20160104 01:00;16.5;4.3;6.8;6.4;10.5;14;-0.46;0.95;-0.49;;1.81;0.64;0.1;0.5;0.3;0.5
SO2;uur;�g/m�;20160104 01:00;20160104 02:00;16.6;4.1;6.9;5.2;14;16.6;-0.54;0.58;-1.03;;1.68;0.84;0.1;0.5;-0.3;0
SO2;uur;�g/m�;20160104 02:00;20160104 03:00;16.2;4.2;6.8;4.8;12.6;12.8;-0.74;0.05;-0.6;;1.5;1.44;0;0.3;-0.4;0.2
SO2;uur;�g/m�;20160104 03:00;20160104 04:00;15.8;4.2;6.7;6.6;10.8;11.5;-0.68;0.11;-0.66;;2.08;1.27;0;0.4;-0.6;0.4
SO2;uur;�g/m�;20160104 04:00;20160104 05:00;38.6;4.1;6.8;7.8;9.4;10.9;-0.6;0.06;-0.72;;1.82;1.45;0;0.3;-0.2;0.5
SO2;uur;�g/m�;20160104 05:00;20160104 06:00;49.4;4.5;6.7;5.4;8.7;11.9;-0.64;0.3;-1.16;;2.25;1.22;0;0.4;-0.7;0
SO2;uur;�g/m�;20160104 06:00;20160104 07:00;20.6;4.4;7.2;5;9.5;12.6;-0.81;0.13;-0.49;;1.74;1.19;0;0.6;-0.5;0.3
SO2;uur;�g/m�;20160104 07:00;20160104 08:00;18.8;4.4;6.9;5;8;11.6;-0.49;0.26;-1.09;;2.24;2;0;0.5;-0.2;0
SO2;uur;�g/m�;20160104 08:00;20160104 09:00;17.1;;7;5.5;7.7;11.6;-0.43;0.17;-0.6;;1.75;1.88;0.1;0.9;-0.4;0.2
SO2;uur;�g/m�;20160104 09:00;20160104 10:00;16.8;4.3;7.1;4.8;7.2;11.4;-0.55;0.07;-0.87;;2.48;2.01;0.2;0.6;-0.5;0.5
SO2;uur;�g/m�;20160104 10:00;20160104 11:00;;;;3.8;6.9;12;-0.09;-0.06;-0.88;;2.75;2.68;0.2;1;-0.2;0.8
SO2;uur;�g/m�;20160104 11:00;20160104 12:00;;3.6;;6.3;7.5;13.1;-0.41;0.33;-0.31;;2.6;2.05;0.4;0.5;0.7;6.6
SO2;uur;�g/m�;20160104 12:00;20160104 13:00;6.5;3.8;;11.8;7.7;12.3;-0.51;0.2;0.04;1.09;2.52;2.14;0.6;0.6;0;6.5
SO2;uur;�g/m�;20160104 13:00;20160104 14:00;6.3;3.8;;7.7;7.5;11.5;-0.5;0.15;-0.14;0.17;2.65;2.25;0.7;0.6;0.2;7.1
SO2;uur;�g/m�;20160104 14:00;20160104 15:00;5.4;3.9;;6;7.6;12.4;-0.03;0.25;-0.32;0.57;2.41;2.57;0.9;1.6;0.7;7.1
SO2;uur;�g/m�;20160104 15:00;20160104 16:00;5.7;4;;5.6;6.8;12.6;0.04;0.42;1.46;-0.35;2.76;3.01;0.5;4.3;1.2;7.1
SO2;uur;�g/m�;20160104 16:00;20160104 17:00;6.9;3.5;;5.2;7.1;12.6;0.02;-0.14;0.26;-0.24;2.49;2.76;0.3;2;0.6;7
SO2;uur;�g/m�;20160104 17:00;20160104 18:00;19.6;3.4;;4.4;6.8;12.2;-0.14;-0.3;-0.34;0.18;2.04;2.94;0.5;1.7;0.4;7
SO2;uur;�g/m�;20160104 18:00;20160104 19:00;29.6;3.6;;4.6;6.9;12.4;-0.34;-0.16;-0.1;-0.28;2;3.26;0.4;1.4;0.5;6.8
SO2;uur;�g/m�;20160104 19:00;20160104 20:00;23.2;3.6;;5;6.6;11.9;-0.45;-0.02;-0.25;0.24;2.42;3.03;0.4;0.8;0.2;6.9
SO2;uur;�g/m�;20160104 20:00;20160104 21:00;11;3.4;;5.2;6.8;11.8;-0.26;-0.2;-0.13;0.1;2.03;3.83;0.3;;0.6;6.9
SO2;uur;�g/m�;20160104 21:00;20160104 22:00;7.7;3.1;;5.4;6.8;12.3;-0.6;-0.32;-0.1;-0.6;2.84;3.15;0.3;3.6;0.5;6.6
SO2;uur;�g/m�;20160104 22:00;20160104 23:00;5.9;3.3;;5.1;6.7;11.5;-0.38;-0.4;-0.16;-0.36;2.12;3.27;0.2;3.4;0.4;5.2
SO2;uur;�g/m�;20160104 23:00;20160105 00:00;4.9;3.3;;4.2;6.6;13.2;-0.53;-0.43;0.13;-0.3;2.39;3.29;0.1;3.2;0;5.4
SO2;uur;�g/m�;20160105 00:00;20160105 01:00;5;3.5;;4.4;6.3;13.3;-0.49;1.28;1.21;-0.41;-0.32;4.2;0;3;0.3;6.6
SO2;uur;�g/m�;20160105 01:00;20160105 02:00;5.6;3.4;;;6.5;12.5;-0.33;1.06;1.17;-0.17;-0.01;4.21;0.1;2.8;-0.1;6.4
SO2;uur;�g/m�;20160105 02:00;20160105 03:00;5.6;3.4;;;6.6;13;-0.5;1.04;1.11;0.05;-0.07;3.92;0.1;3.8;1.1;6.3
SO2;uur;�g/m�;20160105 03:00;20160105 04:00;6.8;3.4;;;6.3;13.1;-0.3;1.35;1;0.01;0.1;4.99;0.1;3.4;0.9;5.9
SO2;uur;�g/m�;20160105 04:00;20160105 05:00;6.6;3.3;;;6.3;11.9;-0.3;1.05;1.31;-0.45;0.05;4.35;0.1;3.5;0;6.3
SO2;uur;�g/m�;20160105 05:00;20160105 06:00;10.5;2.9;;;6.2;11.6;-0.34;0.92;1.28;0.01;-0.59;4.54;0.1;3.2;1.3;6.9
SO2;uur;�g/m�;20160105 06:00;20160105 07:00;22.2;3.1;;;6.7;10.9;-0.29;0.57;0.99;-0.02;-0.83;4.4;0.2;3.1;5.5;6.8
SO2;uur;�g/m�;20160105 07:00;20160105 08:00;7.1;2.6;;;7;11.5;-0.41;0.61;0.96;0.05;-0.33;4;0.2;2.5;8.5;7.2
SO2;uur;�g/m�;20160105 08:00;20160105 09:00;5.2;3.4;;4;1.8;11.5;-0.56;0.7;1.13;-0.08;-0.11;4.4;0.2;2.8;6.2;7.3
SO2;uur;�g/m�;20160105 09:00;20160105 10:00;4.9;3.2;;4.6;1.2;11.2;-0.85;1.28;1.38;0.3;0.11;4.6;0.1;3.4;5;7
SO2;uur;�g/m�;20160105 10:00;20160105 11:00;4.1;2.6;;4.7;1.6;;-0.57;1.08;1.01;-0.34;0.28;3.82;0.1;3.8;4.7;3.6
SO2;uur;�g/m�;20160105 11:00;20160105 12:00;6.9;2.9;;4.1;1.5;11.4;-0.53;1.67;1.24;0.17;0.07;3.2;0.1;4.3;5.3;4.5
SO2;uur;�g/m�;20160105 12:00;20160105 13:00;13.2;3.1;;4.4;1.4;10.9;-0.3;2.18;1.21;-0.29;2.65;3.63;0.2;3.4;2.5;0.7
SO2;uur;�g/m�;20160105 13:00;20160105 14:00;20;3.4;;5.7;1.5;;-0.24;2.29;1.34;-0.5;2.4;3.77;0.2;2.9;1.1;3.3
SO2;uur;�g/m�;20160105 14:00;20160105 15:00;6.1;3.5;;10;2.7;;-0.32;2.12;1.3;-0.13;2.07;3.17;0.3;3.1;0.7;0
SO2;uur;�g/m�;20160105 15:00;20160105 16:00;5.1;3;;10.6;3.1;7.6;-0.51;2.04;1.08;-0.16;1.36;2.81;0.4;3.1;0.5;3.1
SO2;uur;�g/m�;20160105 16:00;20160105 17:00;4.7;3;;6.2;4.5;11.3;-0.42;2.71;0.99;-0.29;0.68;3.28;0.3;2.8;-0.1;2.5
SO2;uur;�g/m�;20160105 17:00;20160105 18:00;4.9;3;;6.1;6.4;11.3;-0.7;4.07;0.58;0.02;0.3;3.59;0.2;3.1;0.1;2
SO2;uur;�g/m�;20160105 18:00;20160105 19:00;3.7;2.7;;5.5;8.3;12.7;-0.69;3.63;0.66;-0.1;0.21;4.79;0.2;3.3;;2.9
SO2;uur;�g/m�;20160105 19:00;20160105 20:00;2.9;2.3;;5.1;8.7;10.5;-0.22;3.73;0.7;-0.24;0.04;4.76;0.7;3;0.6;5.4
SO2;uur;�g/m�;20160105 20:00;20160105 21:00;2.9;2.2;;4.8;10.9;9.6;-0.15;3.08;1.05;-0.31;0.07;5.32;0.6;3.6;1;2
SO2;uur;�g/m�;20160105 21:00;20160105 22:00;3.1;2.1;;5.3;11.3;10.2;-0.43;1.97;0.6;-0.17;-0.03;5.68;0.5;3.3;1;0.2
SO2;uur;�g/m�;20160105 22:00;20160105 23:00;2.4;2.3;;4.8;12.5;8.6;-0.39;3.27;0.71;-0.29;0.14;7.13;0.5;3.7;0.9;0.3
SO2;uur;�g/m�;20160105 23:00;20160106 00:00;3;2;;3.9;12.3;7.9;-0.29;3.3;0.54;-0.07;0.24;6.49;0.4;3.8;1.3;4.1
SO2;uur;�g/m�;20160106 00:00;20160106 01:00;3;1.6;;5.2;11.2;7.7;0.74;2.2;0.97;1;3.51;6.41;0.4;3.8;0.9;5.5
SO2;uur;�g/m�;20160106 01:00;20160106 02:00;2.7;2;;4.9;8.8;7.6;0.8;1.71;0.61;1.14;3.63;6.02;0.3;3.9;1.4;5.7
SO2;uur;�g/m�;20160106 02:00;20160106 03:00;3.3;1.9;;5.2;7.6;7.1;0.9;1.6;0.73;1.22;3.72;5.86;0.4;4.4;1.1;6.7
SO2;uur;�g/m�;20160106 03:00;20160106 04:00;2.5;1.7;;5.1;8.7;7.7;1.21;1.82;0.64;1.09;3.44;6.14;0.3;4.9;0.8;6.4
SO2;uur;�g/m�;20160106 04:00;20160106 05:00;2.3;1.5;;4.5;7.6;9.6;0.8;2.77;0.81;1.4;4.06;6.1;0.4;4.3;1.5;6.4
SO2;uur;�g/m�;20160106 05:00;20160106 06:00;3.4;2.1;;4.1;8.8;11.9;0.68;1.99;0.98;1.11;4.03;5.71;0.4;4.6;1.1;7
SO2;uur;�g/m�;20160106 06:00;20160106 07:00;7.9;1.7;;3.7;9;11.9;0.78;2.47;0.78;1.4;4.26;5.71;0.5;5.1;2.1;7.1
SO2;uur;�g/m�;20160106 07:00;20160106 08:00;15.9;1.5;;4.4;6.7;11.5;0.96;2.12;0.6;1.3;4.13;6.08;0.6;5;1.5;6.9
SO2;uur;�g/m�;20160106 08:00;20160106 09:00;12.5;2;;4.7;7.5;9.5;0.83;2.49;1.11;1.38;4.58;6.91;0.7;5.5;2.2;7.1
SO2;uur;�g/m�;20160106 09:00;20160106 10:00;10.4;2.1;;4.1;6.6;11;0.67;2.19;1.1;1.37;5.15;6.54;0.7;4.9;1.6;7.1
SO2;uur;�g/m�;20160106 10:00;20160106 11:00;14;1.6;;4.6;5.6;8.1;1.05;2.44;1.5;0.98;5;7.18;0.7;5.4;2.1;7.2
SO2;uur;�g/m�;20160106 11:00;20160106 12:00;8.4;3.1;;4.4;3.8;6.3;1.04;2.72;1.25;1.18;4.21;7.94;0.9;5.2;1.9;6.2
SO2;uur;�g/m�;20160106 12:00;20160106 13:00;13.8;3.4;;4.3;3.6;5.7;1.2;2.7;0.22;1.55;4.51;8.92;0.9;5.5;1.3;5
SO2;uur;�g/m�;20160106 13:00;20160106 14:00;23.1;3.4;;4.5;4.7;6.5;0.08;2.27;1;1.74;4.65;9.18;0.8;5.6;2.1;2.7
SO2;uur;�g/m�;20160106 14:00;20160106 15:00;24.6;3.5;;4.9;4.6;6.6;0.56;1.52;1.51;1.66;4.64;9.15;0.9;5.6;2.1;1.4
SO2;uur;�g/m�;20160106 15:00;20160106 16:00;30.8;3.9;;4.5;4.1;6.6;1.26;1.77;1.8;1.55;4.37;9.47;0.9;5;1.7;2.2
SO2;uur;�g/m�;20160106 16:00;20160106 17:00;25.9;3.6;;4.4;5.6;7.3;1.16;1.41;1.32;1.49;4.69;9.87;0.8;4.6;2.1;1.7
SO2;uur;�g/m�;20160106 17:00;20160106 18:00;33.7;3.6;;4.5;4.5;7;0.99;1.48;1.6;1.5;5.22;12.12;0.8;5.6;2;2.4
SO2;uur;�g/m�;20160106 18:00;20160106 19:00;25.8;3.4;;4.2;4.5;6.5;1.14;0.78;1.51;1.58;4.95;11.66;0.9;4.8;2.5;2.4
SO2;uur;�g/m�;20160106 19:00;20160106 20:00;15.2;3.7;;4.3;3.8;6.2;0.75;1.31;1.05;1.79;4.91;9.96;0.8;5.2;2.4;0
SO2;uur;�g/m�;20160106 20:00;20160106 21:00;12.6;3.2;;4.5;4;6.5;0.98;1.02;1.14;1.46;5.12;9.2;0.8;4.4;2;3.3
SO2;uur;�g/m�;20160106 21:00;20160106 22:00;23;2.7;;4.3;4.2;6.6;0.81;1.69;1.45;2;5.91;9.77;0.9;5.5;2.6;4
SO2;uur;�g/m�;20160106 22:00;20160106 23:00;12.6;2.3;;4;3.6;7;0.73;3.33;1.17;1.89;5.02;9.59;0.9;;2.7;4.1
SO2;uur;�g/m�;20160106 23:00;20160107 00:00;9.3;2;;3.7;3.9;8.3;0.97;3.27;1.36;1.62;5.35;9.61;0.9;0.4;3;4.1
SO2;uur;�g/m�;20160107 00:00;20160107 01:00;5.3;1.4;;3.3;5.5;7.4;-0.3;3.45;0.18;0.42;4.28;10.52;1;1;3.3;4
SO2;uur;�g/m�;20160107 01:00;20160107 02:00;3.8;1.4;;3.2;8.2;9.9;-0.51;4.21;0.2;0.53;3.81;11.16;0.9;0.5;2.5;4.4
SO2;uur;�g/m�;20160107 02:00;20160107 03:00;3.1;1.4;;3.4;7.7;9.1;-0.36;2.49;0.12;0.12;3.94;9.52;0.9;0.2;2.1;3.8
SO2;uur;�g/m�;20160107 03:00;20160107 04:00;3.4;1.6;;4.4;10.1;9.6;-0.77;3.42;-0.06;1.05;3.57;8.38;0.9;0.1;2.1;3.6
SO2;uur;�g/m�;20160107 04:00;20160107 05:00;3;1.7;;5.7;9.1;8.4;-0.59;5.08;-0.34;0.53;3.17;5.74;0.8;0.2;1.7;4
SO2;uur;�g/m�;20160107 05:00;20160107 06:00;3.1;1.8;;8.9;7.3;9.4;-0.71;3.21;-0.12;0.24;3.98;4.49;0.7;0.2;1.7;3.3
SO2;uur;�g/m�;20160107 06:00;20160107 07:00;3.5;2.7;;5.8;12.9;11.9;-0.7;2.28;0.15;-0.05;4.02;3.9;0.7;0.2;1.4;2.9
SO2;uur;�g/m�;20160107 07:00;20160107 08:00;4.2;2.6;;5.3;15;12.5;-1.21;1.63;0.21;-0.17;3.16;3.26;0.8;0;0.8;2.8
SO2;uur;�g/m�;20160107 08:00;20160107 09:00;5.1;2.8;;5;15.4;11.2;-0.88;1.42;-0.05;0.09;3.29;3.78;0.8;0.1;0.7;3.5
SO2;uur;�g/m�;20160107 09:00;20160107 10:00;5.4;2.8;;5.5;15.9;12.1;-0.53;1.65;-0.16;0.81;2.86;3.09;0.7;0;0.7;3.7
SO2;uur;�g/m�;20160107 10:00;20160107 11:00;5.9;3.2;;5.1;10.9;12.2;-0.35;1.46;-0.21;0.02;2.8;2.45;0.7;0.1;1.3;3.7
SO2;uur;�g/m�;20160107 11:00;20160107 12:00;10.9;3.8;;4.7;7;10.2;-0.62;1.32;0.01;0.69;3.58;2.26;0.7;0.1;1;3.6
SO2;uur;�g/m�;20160107 12:00;20160107 13:00;8.4;4.2;;4.8;6.4;10.3;-0.56;1.16;-0.08;0.46;3.18;2.2;0.7;0;1.7;3.8
SO2;uur;�g/m�;20160107 13:00;20160107 14:00;8.8;3.8;;8.6;5.1;8.9;-1.22;3.21;-0.62;0.22;2.89;1.54;0.8;0.1;0.2;3
SO2;uur;�g/m�;20160107 14:00;20160107 15:00;7.3;4.4;;7.9;8.1;10.1;-1.17;2.01;-0.3;-0.23;2.56;1.14;0.7;0;0.8;3.3
SO2;uur;�g/m�;20160107 15:00;20160107 16:00;14.9;4.6;;8.4;5.7;10.1;-1.47;2.04;-0.31;-0.25;2.62;1.32;0.6;0.1;0;3.5
SO2;uur;�g/m�;20160107 16:00;20160107 17:00;13.7;4.6;;6.4;4.5;10.6;-1.68;2.02;-0.03;-0.28;2.77;1.18;0.6;0.1;0.3;3.5
SO2;uur;�g/m�;20160107 17:00;20160107 18:00;8.5;5;;5.6;8.4;12;-0.63;1.94;0.05;-0.55;2.17;1.09;0.5;0.1;2.8;3.3
SO2;uur;�g/m�;20160107 18:00;20160107 19:00;6.9;12.4;;4.9;8.7;7.8;-0.5;1.92;-0.19;-0.22;2.62;0.74;0.6;0;0.3;3.8
SO2;uur;�g/m�;20160107 19:00;20160107 20:00;7.7;17.3;;5.5;14.9;7.5;-0.23;1.78;-0.58;-0.1;2.4;0.63;0.6;0;0.1;4.2
SO2;uur;�g/m�;20160107 20:00;20160107 21:00;7.5;5.8;;4.5;8.9;6.2;0.04;1.62;0.22;0.24;1.97;0.41;0.7;0.1;;4.3
SO2;uur;�g/m�;20160107 21:00;20160107 22:00;6.6;4.1;;4;3.3;6.1;0.03;1.52;-0.3;0.57;1.44;0.72;0.5;0;1.8;4
SO2;uur;�g/m�;20160107 22:00;20160107 23:00;5.2;3.5;;3.6;2.7;5;-0.12;1.64;-0.12;-0.15;1.44;0.76;0.3;0;1.9;4.2
SO2;uur;�g/m�;20160107 23:00;20160108 00:00;6.2;3.3;;3.3;6.4;4.9;0.13;1.33;-0.48;0.27;1.48;0.67;0.3;0.1;1.1;4.3
SO2;uur;�g/m�;20160108 00:00;20160108 01:00;5.1;2.8;;3.2;4.9;4.2;0.05;0.24;1.63;0.62;3.32;1.06;0.2;0.1;1.5;4.3
SO2;uur;�g/m�;20160108 01:00;20160108 02:00;4.8;2.4;;3.1;4;3.8;-0.11;0.21;1.31;0.75;2.88;0.17;0.2;0.1;1.2;4
SO2;uur;�g/m�;20160108 02:00;20160108 03:00;3.8;2.2;;2.9;3.5;3.4;-0.07;-0.05;0.99;0.87;2.43;0.54;0.2;0.1;1.4;3.7
SO2;uur;�g/m�;20160108 03:00;20160108 04:00;7.9;1.4;;2.5;2.6;4.1;-0.08;0.25;1.09;0.81;2.97;0.37;0.2;0.1;1.1;3.8
SO2;uur;�g/m�;20160108 04:00;20160108 05:00;7.8;1.3;;2.6;2.3;3.2;0.16;0.62;1.1;0.36;3.22;0.55;0.2;0.1;1.6;3.2
SO2;uur;�g/m�;20160108 05:00;20160108 06:00;11.1;1.3;;2.2;3.7;3.3;0.31;0.28;0.86;0.3;2.99;0.18;0.2;0;1.5;2.3
SO2;uur;�g/m�;20160108 06:00;20160108 07:00;11.7;1.1;;2.6;2.7;3;0.38;0.31;1.25;0.99;3.22;-0.03;0.2;0;1.4;1.3
SO2;uur;�g/m�;20160108 07:00;20160108 08:00;16.2;1.5;;2.4;3.6;3.9;0.16;0.25;1.05;0.84;3.17;0.28;0.2;0;1;1.2
SO2;uur;�g/m�;20160108 08:00;20160108 09:00;7.4;1.1;;2.8;2.2;3.1;0.28;0.22;1.39;0.79;3.57;0.18;0.2;0.2;1.3;1.7
SO2;uur;�g/m�;20160108 09:00;20160108 10:00;23;1.1;;3.8;1.7;6.2;0.34;0.22;1.06;0.64;3.67;-0.32;0.3;0;1.1;3
SO2;uur;�g/m�;20160108 10:00;20160108 11:00;22.5;1.3;;6.7;2.6;3.2;0.46;0.79;1.52;0.94;4.02;0.14;0.4;0.1;2.1;3.3
SO2;uur;�g/m�;20160108 11:00;20160108 12:00;36.5;2.3;;9.6;2.6;3.9;0.11;0.54;1.89;1.74;4.17;0.15;0.5;0.2;1.8;3.6
SO2;uur;�g/m�;20160108 12:00;20160108 13:00;30.1;3;;10.3;2;3.3;0.34;0.83;7.03;2.52;4.06;0.32;2;0.2;1.3;3.4
SO2;uur;�g/m�;20160108 13:00;20160108 14:00;20.9;2.4;;11.5;3.2;4.7;0.39;0.62;4.34;1.71;4.42;0.53;2.7;1.1;7.2;5.3
SO2;uur;�g/m�;20160108 14:00;20160108 15:00;16.4;2.4;;8.2;4.8;5.7;0.14;0.62;4.89;1.49;4.05;0.23;2.6;0.6;11.4;3.6
SO2;uur;�g/m�;20160108 15:00;20160108 16:00;5.6;2.3;;7;4;4.8;-0.15;0.52;4.44;1.56;3.82;0.19;2.3;0.3;12.2;2.5
SO2;uur;�g/m�;20160108 16:00;20160108 17:00;5.4;1.5;;6.1;1.9;8.3;-0.13;0.1;3.55;0.73;3.31;-0.32;2;0.7;16.4;3
SO2;uur;�g/m�;20160108 17:00;20160108 18:00;4.8;1.4;;3.8;1.1;7.4;-0.1;-0.02;3.16;1.03;4.04;0.22;1.6;0.4;33.5;3.3
SO2;uur;�g/m�;20160108 18:00;20160108 19:00;6.7;1;;3.6;1.1;6;-0.13;-0.22;2.78;1.57;3.32;0.34;1;0.2;22.1;3.8
SO2;uur;�g/m�;20160108 19:00;20160108 20:00;8.5;1.2;;3.8;0.7;5.3;-0.02;0.29;2.32;0.3;2.76;-0.11;0.8;0.4;11.6;2.8